Location: Kalisz
(51.7636°N, 18.0893°E)
Time: 12:10:38
(UTC+02:00)

ISS - Pass Details

Date: 30 January 2019
Orbit: 411 x 421 km, 51.6° (Epoch: 16 October)

Event Time Altitude Azimuth Distance (km) Brightness Sun altitude
Rises 19:06:41 0° 275° (W) 2,375 1.5 -23.8°
Reaches altitude 10° 19:08:47 10° 275° (W) 1,510 0.1 -24.2°
Enters shadow 19:11:00 38° 273° (W) 661 -2.3 -24.5°
